x

Big Sable Point, Mi (bsbm4) Weather Station

7:40am - Sun 29th Mar 2015 All times are CDT. -5 hours from GMT.

  • Wind
    18mph, 28mph gusts
  • Air Temp 33°f
  • Sea Pressure 1019mb
  • Big Sable Point, Mi
  • Big Sable Point, Mi

More Historic Weather Station data

Upgrade to MSW Pro to gain access to the past 30 days of data for over 8000 Wavebouys and Weather Stations around the globe.

Join Pro

Comparision Forecast

View Surf forecast
   
Sun 03/29 7:40am 18 28 mph 1019mb 33f
7:30am 20 29 mph 1019mb 33f
7:20am 20 29 mph 1019mb 33f
7:10am 20 31 mph 1019.3mb 33f
7:00am 22 32 mph 1019mb 33f
6:43am 16 30 mph 1018.6mb 33f
6:40am 17 26 mph 1018.6mb 33f
6:30am 17 30 mph 1018.6mb 33f
6:20am 20 28 mph 1018.6mb 33f
6:10am 20 29 mph 1018.3mb 33f
6:00am 17 30 mph 1018.6mb 33f
5:40am 21 29 mph 1019mb 33f
5:30am 21 26 mph 1019.3mb 33f
5:20am 18 30 mph 1019.3mb 33f
5:10am 21 26 mph 1019.3mb 32f
5:00am 17 23 mph 1019.6mb 31f
4:40am 21 30 mph 1020mb 32f
4:30am 18 26 mph 1020mb 32f
4:20am 17 25 mph 1020.3mb 32f
4:10am 16 28 mph 1020.3mb 32f
4:00am 17 25 mph 1020.3mb 32f
3:40am 15 26 mph 1020.7mb 32f
3:30am 11 23 mph 1021mb 32f
3:20am 15 22 mph 1021.3mb 32f
3:10am 16 23 mph 1021.3mb 32f
3:00am 17 24 mph 1021.7mb 32f
2:40am 17 24 mph 1021.7mb 32f
2:30am 16 23 mph 1022mb 31f
2:20am 13 24 mph 1022.4mb 31f
2:10am 16 23 mph 1022.4mb 31f
2:00am 17 24 mph 1022.7mb 31f
1:40am 16 22 mph 1022.7mb 31f
1:30am 14 22 mph 1022.7mb 31f
1:20am 13 22 mph 1023mb 30f
1:10am 16 22 mph 1023mb 30f
1:00am 14 23 mph 1023mb 30f
12:40am 13 21 mph 1023.4mb 30f
12:30am 14 22 mph 1023.7mb 29f
12:20am 10 16 mph 1023.7mb 28f
12:10am 13 17 mph 1023.7mb 28f
12:00am 11 17 mph 1024mb 28f
Sat 03/28 11:40pm 13 21 mph 1024mb 28f
11:30pm 15 18 mph 1024mb 28f
11:20pm 14 17 mph 1024.4mb 28f
11:10pm 14 18 mph 1024.4mb 28f
11:00pm 13 18 mph 1024.4mb 28f
10:40pm 14 18 mph 1024.7mb 28f
10:30pm 15 17 mph 1024.7mb 28f
10:20pm 15 18 mph 1024.7mb 28f
10:10pm 13 20 mph 1024.7mb 28f
10:00pm 14 20 mph 1025.1mb 28f
9:40pm 13 17 mph 1025.1mb 28f
9:30pm 11 16 mph 1025.4mb 28f
9:20pm 13 17 mph 1025.1mb 28f
9:10pm 13 16 mph 1025.1mb 28f
9:00pm 11 16 mph 1025.1mb 28f
8:40pm 8 11 mph 1025.1mb 27f
8:30pm 7 11 mph 1025.1mb 26f
8:20pm 8 10 mph 1025.1mb 27f
8:10pm 6 11 mph 1024.7mb 27f
8:00pm 7 13 mph 1025.1mb 27f
7:40pm 9 13 mph 1025.1mb 27f
7:30pm 10 13 mph 1024.7mb 27f
7:20pm 10 14 mph 1024.7mb 27f
7:10pm 10 14 mph 1025.1mb 27f
7:00pm 9 13 mph 1025.1mb 27f
6:40pm 10 13 mph 1025.4mb 28f
6:30pm 10 14 mph 1025.4mb 28f
6:20pm 10 14 mph 1025.4mb 28f
6:10pm 9 13 mph 1025.7mb 29f
6:00pm 9 11 mph 1025.7mb 29f
5:40pm 9 10 mph 1026.1mb 29f
5:30pm 8 10 mph 1026.1mb 29f
5:20pm 7 10 mph 1026.1mb 29f
5:10pm 7 9 mph 1026.1mb 29f
5:00pm 7 10 mph 1026.1mb 28f
4:40pm 8 10 mph 1026.4mb 28f
4:30pm 7 9 mph 1026.4mb 28f
4:20pm 7 9 mph 1026.4mb 28f
4:10pm 7 11 mph 1026.4mb 27f
4:00pm 10 11 mph 1026.8mb 27f
3:40pm 8 10 mph 1026.8mb 27f
3:30pm 8 10 mph 1026.8mb 27f
3:20pm 6 9 mph 1027.1mb 27f
3:10pm 6 9 mph 1026.8mb 27f
3:00pm 8 10 mph 1026.8mb 26f
2:40pm 7 10 mph 1027.1mb 26f
2:30pm 8 10 mph 1027.1mb 25f
2:20pm 6 8 mph 1027.1mb 25f
2:10pm 6 8 mph 1027.1mb 26f
2:00pm 7 9 mph 1027.4mb 25f
1:40pm 6 8 mph 1027.4mb 25f
1:30pm 6 9 mph 1027.4mb 24f
1:20pm 7 8 mph 1027.4mb 24f
1:10pm 5 7 mph 1027.4mb 24f
1:00pm 3 6 mph 1027.8mb 25f
12:40pm 7 9 mph 1028.1mb 24f
12:30pm 7 8 mph 1028.1mb 24f
12:20pm 6 8 mph 1028.1mb 24f
12:10pm 7 8 mph 1028.1mb 24f
12:00pm 7 8 mph 1028.4mb 23f
11:40am 5 7 mph 1028.1mb 25f
11:30am 5 6 mph 1028.1mb 25f
11:20am 3 8 mph 1028.1mb 23f
11:10am 5 8 mph 1028.4mb 24f
11:00am 6 7 mph 1028.4mb 23f
10:40am 5 7 mph 1028.1mb 23f
10:30am 3 8 mph 1028.1mb 24f
10:20am 3 7 mph 1028.1mb 23f
10:10am 2 8 mph 1028.4mb 23f
10:00am 6 8 mph 1028.4mb 23f
9:40am 3 8 mph 1028.1mb 23f
9:30am 6 8 mph 1028.1mb 22f
9:20am 3 7 mph 1028.1mb 22f
9:10am 2 7 mph 1028.1mb 22f
9:00am 3 5 mph 1028.1mb 21f
8:40am 2 5 mph 1027.4mb 20f
8:30am 3 6 mph 1027.4mb 20f
8:20am 3 5 mph 1027.4mb 19f
8:10am 5 6 mph 1027.4mb 17f
8:00am 5 6 mph 1027.1mb 16f
7:50am 5 8 mph 1027.1mb 15f
7:40am 6 7 mph 1027.1mb 14f
7:30am 5 7 mph 1027.1mb 13f
7:20am 5 7 mph 1027.1mb 12f
7:10am 5 7 mph 1026.8mb 11f
7:00am 5 6 mph 1026.8mb 11f
6:50am 5 7 mph 1026.8mb 10f
6:40am 6
mph
1026.4mb 9f
6:30am 5 7 mph 1026.4mb 9f
6:20am 6 7 mph 1026.1mb 9f
6:10am 6 7 mph 1026.1mb 9f
6:00am 6 7 mph 1026.1mb 10f
5:50am 6
mph
1026.1mb 10f
5:40am 6
mph
1025.7mb 9f
5:30am 5 6 mph 1025.7mb 9f
5:20am 5 6 mph 1025.7mb 9f
5:10am 6
mph
1025.4mb 9f
5:00am 3 6 mph 1025.4mb 9f
4:50am 6
mph
1025.4mb 9f
4:40am 5
mph
1025.1mb 8f
4:30am 5
mph
1025.1mb 10f
4:20am 3
mph
1025.1mb 11f
4:10am 2 3 mph 1025.1mb 11f
4:00am 3
mph
1024.7mb 12f
3:40am 2 3 mph 1024.7mb 12f
3:30am 3
mph
1024.7mb 12f
3:20am 1 3 mph 1024.7mb 12f
3:10am 2 5 mph 1024.7mb 13f
3:00am 3 5 mph 1024.7mb 13f
2:50am 5 6 mph 1024.7mb 13f
2:40am 3 6 mph 1024.7mb 14f
2:30am 5 8 mph 1024.7mb 14f
2:20am 6 7 mph 1024.7mb 13f
2:10am 6 8 mph 1024.7mb 13f
2:00am 5 6 mph 1024.7mb 13f
1:50am 5 6 mph 1024.4mb 14f
1:40am 5 6 mph 1024.4mb 14f
1:30am 3 5 mph 1024.4mb 14f
1:20am 3 5 mph 1024.4mb 14f
1:10am 3 5 mph 1024.4mb 15f
1:00am 2 3 mph 1024mb 15f
12:50am 1 7 mph 1024mb 15f
12:40am 6 8 mph 1024mb 15f
12:30am 7 8 mph 1024mb 15f
12:20am 6 8 mph 1024mb 15f
12:10am 7 9 mph 1024.4mb 16f
12:00am 7 9 mph 1024mb 16f
Fri 03/27 11:40pm 7 10 mph 1024mb 16f
11:30pm 8 10 mph 1024mb 16f
11:20pm 8 10 mph 1024mb 16f
11:10pm 9 11 mph 1024mb 16f
11:00pm 8 11 mph 1024mb 16f
10:50pm 7 13 mph 1024mb 17f
10:40pm 7 10 mph 1024mb 17f
10:30pm 8 11 mph 1024mb 17f
10:20pm 8 13 mph 1024mb 17f
10:10pm 8 11 mph 1023.7mb 17f
10:00pm 7 13 mph 1023.7mb 17f
9:50pm 8 11 mph 1023.7mb 17f
9:40pm 8 11 mph 1023.7mb 17f
9:30pm 8 11 mph 1023.7mb 17f
9:20pm 7 10 mph 1023.7mb 17f
9:10pm 8 11 mph 1023.7mb 18f
9:00pm 9 11 mph 1023.4mb 18f
8:50pm 9 14 mph 1023.4mb 19f
8:40pm 16 23 mph 1023mb 21f
8:30pm 15 24 mph 1023mb 21f
8:20pm 15 23 mph 1023mb 21f
8:10pm 16 25 mph 1023mb 21f
8:00pm 17 23 mph 1023mb 21f
7:50pm 18 23 mph 1023mb 20f
7:40pm 17 23 mph 1023mb 20f
7:30pm 18 22 mph 1022.7mb 20f
7:20pm 15 26 mph 1022.7mb 20f
7:10pm 16 25 mph 1022.7mb 20f
7:00pm 16 24 mph 1022.7mb 20f
6:50pm 16 26 mph 1022.7mb 20f
6:40pm 17 24 mph 1022.7mb 20f
6:30pm 17 25 mph 1022.7mb 21f
6:20pm 20 29 mph 1022.7mb 20f
6:10pm 18 24 mph 1022.7mb 21f
6:00pm 16 24 mph 1022.7mb 21f
5:50pm 17 25 mph 1022.7mb 21f
5:40pm 20 29 mph 1022.4mb 21f
5:34pm 20 29 mph 1022.4mb 20f
5:30pm 20 26 mph 1022.4mb 20f
5:20pm 16 29 mph 1022.4mb 20f
5:10pm 17 28 mph 1022.4mb 21f
5:00pm 18 28 mph 1022.4mb 20f
4:50pm 20 26 mph 1022.4mb 20f
4:40pm 18 30 mph 1022.4mb 21f
4:30pm 21 29 mph 1022.4mb 20f
4:20pm 18 29 mph 1022.4mb 20f
4:13pm 23 29 mph 1022mb 20f
4:10pm 25 32 mph 1022mb 20f
4:00pm 23 31 mph 1022.4mb 20f
3:50pm 20 28 mph 1022.4mb 20f
3:40pm 20 31 mph 1022.4mb 20f
3:30pm 18 30 mph 1022mb 20f
3:20pm 23 31 mph 1022mb 20f
3:11pm 23 29 mph 1022mb 19f
3:10pm 23 31 mph 1022mb 19f
3:00pm 21 32 mph 1022mb 20f
2:50pm 21 30 mph 1022mb 20f
2:40pm 22 31 mph 1022.4mb 19f
2:30pm 22 31 mph 1022.4mb 20f
2:20pm 23 29 mph 1022.4mb 19f
2:10pm 21 28 mph 1022.4mb 19f
2:00pm 24 32 mph 1022.4mb 19f
1:50pm 21 29 mph 1022.4mb 19f
1:40pm 21 30 mph 1022.4mb 18f
1:30pm 22 30 mph 1022.4mb 19f
1:20pm 20 30 mph 1022.7mb 19f
1:10pm 22 31 mph 1022.7mb 18f
1:00pm 18 30 mph 1022.4mb 19f
12:50pm 22 30 mph 1022.4mb 19f
12:40pm 22 31 mph 1022.7mb 18f
12:30pm 21 29 mph 1022.4mb 19f
12:20pm 20 32 mph 1022.7mb 19f
12:10pm 22 31 mph 1022.7mb 19f
12:00pm 20 31 mph 1022.7mb 19f
11:59am 23 29 mph 1022.7mb 19f
11:40am 18 30 mph 1022.4mb 20f
11:30am 23 32 mph 1022.4mb 19f
11:20am 23 31 mph 1022mb 19f
11:10am 23 33 mph 1022.4mb 20f
11:00am 24 30 mph 1022.4mb 19f
10:59am 21 30 mph 1022mb 20f
10:50am 20 30 mph 1022.4mb 19f
10:40am 23 31 mph 1022mb 19f
10:30am 23 31 mph 1022mb 19f
10:20am 21 30 mph 1021.7mb 20f
10:10am 24 31 mph 1021.7mb 19f
10:00am 16 32 mph 1021.7mb 19f
9:54am 20 30 mph 1021.7mb 18f
9:50am 15 23 mph 1021.7mb 18f
9:40am 14 21 mph 1021.7mb 18f
9:30am 15 21 mph 1021.7mb 19f
9:20am 16 21 mph 1021.7mb 19f
9:10am 14 21 mph 1021.7mb 18f
9:00am 10 21 mph 1021.7mb 18f
8:50am 17 21 mph 1021.7mb 18f
8:40am 14 20 mph 1021.7mb 18f
8:30am 15 18 mph 1021.7mb 19f
8:20am 11 18 mph 1021.3mb 18f
8:10am 14 18 mph 1021.3mb 18f
8:00am 14 17 mph 1021.3mb 19f
7:50am 15 20 mph 1021.3mb 18f
7:40am 14 20 mph 1021.3mb 18f
7:30am 13 21 mph 1021.3mb 18f
7:20am 16 23 mph 1021.3mb 18f
7:10am 15 20 mph 1021.3mb 18f
7:00am 17 21 mph 1021mb 18f
6:50am 11 18 mph 1020.7mb 18f
6:40am 11 22 mph 1020.7mb 18f
6:30am 13 21 mph 1020.7mb 19f
6:20am 14 25 mph 1020.7mb 19f
6:10am 16 23 mph 1020.3mb 19f
6:00am 13 23 mph 1020mb 19f
5:50am 14 24 mph 1020mb 19f
5:40am 16 28 mph 1020mb 20f
5:30am 17 23 mph 1020mb 20f
5:20am 17 28 mph 1020mb 20f
5:10am 23 30 mph 1019.6mb 20f
5:00am 25 30 mph 1019.6mb 21f
4:56am 22 30 mph 1019.6mb 21f
4:50am 25 31 mph 1019.6mb 21f
4:40am 23 31 mph 1019.6mb 22f
4:30am 21 30 mph 1019.3mb 22f
4:20am 17 24 mph 1019.3mb 22f
4:10am 15 26 mph 1019mb 21f
4:00am 22 29 mph 1019.3mb 22f
3:55am 22 29 mph 1019mb 22f
3:50am 22 29 mph 1019mb 22f
3:40am 18 28 mph 1019.3mb 22f
3:30am 17 26 mph 1019.3mb 22f
3:20am 21 26 mph 1019mb 22f
3:10am 17 24 mph 1019mb 22f
3:00am 17 26 mph 1019.3mb 22f
2:50am 17 26 mph 1019.3mb 22f
2:40am 17 28 mph 1019.3mb 21f
2:30am 17 28 mph 1019.6mb 22f
2:20am 20 26 mph 1019.3mb 22f
2:10am 20 26 mph 1019.6mb 22f
2:00am 17 25 mph 1019.6mb 22f
1:50am 20 29 mph 1019.6mb 22f
1:40am 16 25 mph 1019.6mb 22f
1:30am 20 26 mph 1019.6mb 22f
1:20am 17 24 mph 1019.6mb 23f
1:10am 23 29 mph 1020mb 22f
1:00am 18 28 mph 1019.6mb 22f
12:50am 22 28 mph 1020mb 22f
12:40am 22 29 mph 1020mb 22f
12:30am 16 31 mph 1020mb 22f
12:20am 21 31 mph 1020mb 22f
12:10am 21 28 mph 1019.6mb 23f
12:00am 23 31 mph 1019.6mb 23f
Thu 03/26 11:50pm 24 31 mph 1019.6mb 23f
11:40pm 20 32 mph 1019.6mb 24f
11:30pm 23 31 mph 1019.3mb 24f
11:20pm 22 30 mph 1019.3mb 24f
11:10pm 18 32 mph 1019.3mb 24f
11:00pm 20 29 mph 1019.3mb 24f
10:50pm 23 30 mph 1019mb 24f
10:49pm 21 30 mph 1019mb 24f
10:40pm 23 31 mph 1019mb 24f
10:30pm 24 31 mph 1019mb 24f
10:20pm 22 29 mph 1019mb 24f
10:10pm 24 32 mph 1019mb 24f
10:00pm 23 33 mph 1019mb 24f
9:50pm 26 34 mph 1019mb 24f
9:45pm 23 32 mph 1019mb 24f
9:40pm 29 36 mph 1018.3mb 24f
9:30pm 25 32 mph 1018.6mb 24f
9:20pm 18 36 mph 1018.6mb 25f
9:10pm 28 32 mph 1018.6mb 24f
9:00pm 23 32 mph 1018.6mb 25f
8:50pm 24 31 mph 1018.6mb 25f
8:43pm 22 29 mph 1018.3mb 25f
8:40pm 23 32 mph 1018.6mb 25f
8:30pm 23 30 mph 1018.3mb 25f
8:20pm 21 32 mph 1018.3mb 25f
8:10pm 23 29 mph 1017.9mb 25f
8:00pm 21 30 mph 1017.9mb 25f
7:50pm 22 31 mph 1017.9mb 25f
7:41pm 21 29 mph 1017.6mb 25f
7:40pm 21 30 mph 1017.6mb 25f
7:30pm 23 31 mph 1017.6mb 25f
7:20pm 22 28 mph 1017.6mb 26f
7:10pm 20 29 mph 1017.6mb 26f
7:00pm 18 28 mph 1017.3mb 26f
6:50pm 22 29 mph 1017.3mb 27f
6:40pm 21 29 mph 1016.9mb 27f
6:38pm 24 29 mph 1016.9mb 27f
6:30pm 21 28 mph 1016.9mb 27f
6:20pm 17 25 mph 1016.9mb 27f
6:10pm 18 26 mph 1016.6mb 27f
6:00pm 20 25 mph 1016.6mb 27f
5:50pm 20 25 mph 1016.3mb 28f
5:40pm 16 23 mph 1016.3mb 28f
5:30pm 17 22 mph 1015.9mb 28f
5:20pm 15 20 mph 1015.9mb 28f
5:10pm 16 21 mph 1015.9mb 28f
5:00pm 15 20 mph 1015.6mb 29f
4:50pm 13 20 mph 1015.2mb 29f
4:40pm 13 21 mph 1015.2mb 29f
4:30pm 15 21 mph 1015.2mb 29f
4:20pm 13 18 mph 1014.9mb 30f
4:10pm 15 20 mph 1014.9mb 29f
4:00pm 14 21 mph 1014.9mb 30f
3:50pm 15 21 mph 1014.9mb 30f
3:40pm 16 21 mph 1014.9mb 30f
3:30pm 14 20 mph 1014.6mb 30f
3:20pm 16 22 mph 1014.6mb 30f
3:10pm 16 21 mph 1014.6mb 30f
3:00pm 16 21 mph 1014.6mb 30f
2:50pm 15 23 mph 1014.2mb 31f
2:40pm 14 21 mph 1014.2mb 31f
2:30pm 15 22 mph 1013.9mb 31f
2:20pm 16 22 mph 1013.9mb 31f
2:10pm 15 21 mph 1013.9mb 31f
2:00pm 18 23 mph 1013.9mb 32f
1:50pm 15 20 mph 1013.9mb 32f
1:40pm 17 22 mph 1013.9mb 32f
1:30pm 13 21 mph 1013.9mb 32f
1:20pm 16 21 mph 1014.2mb 32f
1:10pm 16 21 mph 1014.2mb 32f
1:00pm 16 23 mph 1014.2mb 33f
12:50pm 18 24 mph 1013.9mb 33f
12:40pm 17 24 mph 1013.9mb 33f
12:30pm 22 24 mph 1013.9mb 33f
12:20pm 20 25 mph 1013.9mb 34f
12:10pm 22 24 mph 1013.9mb 34f
12:00pm 18 23 mph 1013.9mb 34f
11:50am 20 23 mph 1013.5mb 34f
11:40am 18 22 mph 1013.9mb 34f
11:30am 15 17 mph 1013.9mb 34f
11:20am 15 17 mph 1013.9mb 34f
11:10am 14 20 mph 1013.9mb 34f
11:00am 15 18 mph 1013.9mb 34f
10:50am 13 16 mph 1013.5mb 35f
10:40am 15 17 mph 1013.5mb 35f
10:30am 14 20 mph 1013.5mb 35f
10:20am 14 16 mph 1013.5mb 35f
10:10am 13 17 mph 1013.5mb 35f
10:00am 14 17 mph 1013.5mb 35f
9:50am 14 18 mph 1013.5mb 35f
9:40am 13 16 mph 1013.5mb 35f
9:30am 14 17 mph 1013.5mb 35f
9:20am 14 18 mph 1013.2mb 35f
9:10am 15 18 mph 1013.5mb 35f
9:00am 14 16 mph 1013.5mb 35f
8:50am 14 15 mph 1013.5mb 35f
8:40am 13 16 mph 1013.5mb 35f
8:30am 11 15 mph 1013.2mb 35f
8:20am 11 16 mph 1013.2mb 35f
8:10am 14 18 mph 1013.2mb 35f
8:00am 13 16 mph 1013.2mb 35f
7:50am 14 16 mph 1013.2mb 35f
7:40am 14 17 mph 1013.2mb 35f
7:30am 15 17 mph 1012.9mb 35f
7:20am 15 18 mph 1012.9mb 35f
7:10am 14 16 mph 1012.9mb 35f
7:00am 13 16 mph 1012.9mb 35f
6:50am 14 17 mph 1012.9mb 35f
6:40am 15 18 mph 1012.5mb 35f
6:30am 13 17 mph 1012.5mb 35f
6:20am 14 17 mph 1012.5mb 35f
6:10am 13 16 mph 1012.5mb 35f
6:00am 13 17 mph 1012.5mb 35f
5:50am 15 17 mph 1012.2mb 35f
5:40am 10 13 mph 1012.2mb 35f
5:30am 11 14 mph 1012.2mb 35f
5:20am 11 15 mph 1012.2mb 35f
5:10am 11 15 mph 1012.2mb 35f
5:00am 11 15 mph 1012.2mb 35f
4:50am 11 14 mph 1012.2mb 35f
4:40am 13 14 mph 1012.2mb 35f
4:30am 11 14 mph 1012.5mb 35f
4:20am 10 13 mph 1012.5mb 35f
4:10am 8 11 mph 1012.9mb 35f
4:00am 7 11 mph 1013.2mb 35f
3:50am 9 13 mph 1013.2mb 35f
3:40am 11 14 mph 1013.2mb 35f
3:30am 10 14 mph 1013.2mb 36f
3:20am 9 14 mph 1013.5mb 36f
3:10am 10 14 mph 1013.9mb 35f
3:00am 9 13 mph 1013.9mb 35f
2:50am 10 16 mph 1014.2mb 36f
2:40am 16 22 mph 1014.2mb 37f
2:30am 17 21 mph 1014.2mb 37f
2:20am 13 18 mph 1014.6mb 36f
2:10am 13 18 mph 1014.6mb 36f
2:00am 15 18 mph 1014.6mb 36f
1:50am 13 17 mph 1014.6mb 36f
1:40am 14 20 mph 1014.6mb 36f
1:30am 14 18 mph 1014.6mb 36f
1:20am 15 18 mph 1014.6mb 36f
1:10am 14 18 mph 1014.6mb 36f
1:00am 13 17 mph 1014.2mb 37f
12:50am 14 18 mph 1014.6mb 37f
12:40am 14 20 mph 1014.6mb 37f
12:30am 13 20 mph 1014.6mb 37f
12:20am 14 18 mph 1014.2mb 37f
12:10am 13 17 mph 1014.6mb 37f
12:00am 13 16 mph 1014.6mb 37f
Wed 03/25 11:50pm 10 16 mph 1014.2mb 37f
11:40pm 13 20 mph 1014.6mb 37f
11:30pm 10 15 mph 1014.6mb 36f
11:20pm 11 15 mph 1014.6mb 36f
11:10pm 10 16 mph 1014.6mb 37f
11:00pm 15 21 mph 1014.2mb 37f
10:50pm 18 23 mph 1014.2mb 37f
10:40pm 18 22 mph 1014.2mb 38f
10:30pm 16 20 mph 1014.6mb 37f
10:20pm 16 18 mph 1014.6mb 38f
10:10pm 14 18 mph 1014.9mb 38f
10:00pm 10 13 mph 1014.9mb 37f
9:50pm 9 11 mph 1014.9mb 37f
9:40pm 11 15 mph 1014.9mb 37f
9:30pm 14 17 mph 1014.6mb 38f
9:20pm 11 17 mph 1014.6mb 37f
9:10pm 13 21 mph 1014.6mb 38f
9:00pm 16 21 mph 1014.6mb 37f
8:50pm 16 21 mph 1014.6mb 37f
8:40pm 14 16 mph 1014.6mb 36f
8:30pm 9 14 mph 1014.6mb 35f
8:20pm 9 13 mph 1014.6mb 35f
8:10pm 8 13 mph 1014.6mb 35f
8:00pm 9 14 mph 1014.6mb 35f
7:50pm 11 16 mph 1014.2mb 36f
7:40pm 11 16 mph 1014.2mb 35f
7:30pm 13 18 mph 1014.2mb 35f
7:20pm 14 18 mph 1013.9mb 36f
7:10pm 16 21 mph 1013.9mb 36f
7:00pm 13 18 mph 1013.5mb 35f
6:50pm 11 18 mph 1013.5mb 35f
6:40pm 10 16 mph 1013.5mb 35f
6:30pm 10 16 mph 1013.5mb 35f
6:20pm 11 16 mph 1013.2mb 35f
6:10pm 11 18 mph 1013.2mb 35f
6:00pm 11 17 mph 1013.2mb 35f
5:50pm 11 16 mph 1013.2mb 35f
5:40pm 10 17 mph 1013.2mb 35f
5:30pm 13 21 mph 1013.2mb 36f
5:20pm 17 25 mph 1012.9mb 36f
5:10pm 17 23 mph 1012.5mb 36f
5:00pm 18 23 mph 1012.5mb 36f
4:50pm 18 23 mph 1012.5mb 36f
4:40pm 18 23 mph 1012.5mb 36f
4:30pm 18 23 mph 1012.5mb 36f
4:20pm 18 23 mph 1012.5mb 36f
4:10pm 14 22 mph 1012.9mb 36f
4:00pm 17 22 mph 1012.5mb 36f
3:50pm 16 23 mph 1012.5mb 36f
3:40pm 16 22 mph 1012.5mb 35f
3:30pm 18 23 mph 1012.2mb 35f
3:20pm 18 24 mph 1012.2mb 35f
3:10pm 18 24 mph 1012.2mb 35f
3:00pm 20 26 mph 1011.9mb 35f
2:50pm 22 26 mph 1011.9mb 35f
2:40pm 17 25 mph 1012.2mb 35f
2:30pm 20 24 mph 1011.9mb 35f
2:20pm 18 24 mph 1011.9mb 35f
2:10pm 18 23 mph 1011.5mb 35f
2:00pm 16 21 mph 1011.5mb 35f
1:50pm 16 21 mph 1011.5mb 35f
1:40pm 18 21 mph 1011.9mb 35f
1:30pm 16 25 mph 1011.5mb 35f
1:20pm 21 28 mph 1011.9mb 34f